DateTimeUTC,F1_A11,F1_S11,BsB_S11,BsG_S11,BsR_S11,BbsB_S11,BbsG_S11,BbsR_S11,BaB_A11,BaG_A11,BaR_A11,Tu_S11,T_S11,Uu_S11,U_S11,P_S11,T1_A11
2021-07-05T13:00:00Z,00000200,20000000,,,,,,,-000.11,0000.02,-000.06,19.9,26.2,07.9,05.4,0664.4,31.2
2021-07-05T13:01:00Z,00000200,20000000,,,,,,,0000.24,-000.20,0000.22,19.9,26.2,07.9,05.4,0664.4,31.2
2021-07-05T13:02:00Z,00000200,20000000,,,,,,,-000.29,-000.15,-000.46,19.9,26.3,08.0,05.4,0664.4,31.2
2021-07-05T13:03:00Z,00000200,60000000,,,,,,,0000.11,-000.09,0000.61,19.9,26.3,08.0,05.4,0664.4,31.2
2021-07-05T13:04:00Z,00000200,40000000,0000.22,0000.38,0000.27,0000.17,0000.08,0000.13,-000.34,-000.01,-000.46,20.0,26.2,07.9,05.5,0665.4,31.2
2021-07-05T13:05:00Z,00000200,00000000,0000.49,0000.56,0000.24,-000.10,0000.04,-000.26,0000.20,0000.05,-000.11,20.0,26.2,07.9,05.5,0665.4,31.3
2021-07-05T13:06:00Z,00000200,00000000,0000.37,0000.15,0000.40,0000.22,0000.08,0000.05,0000.22,-000.07,-000.07,20.1,26.2,07.9,05.5,0665.5,31.3
2021-07-05T13:07:00Z,00000200,00000000,0000.34,0000.62,0000.57,-000.02,0000.01,-000.01,-000.11,0000.37,0000.33,20.1,26.2,07.9,05.4,0665.5,31.2
2021-07-05T13:08:00Z,00000200,00000000,-000.32,0000.46,0000.45,0000.16,0000.24,0000.28,0000.36,0000.14,0000.05,20.1,26.2,08.0,05.5,0665.5,31.3
2021-07-05T13:09:00Z,00000200,00000000,0000.64,0000.71,0000.05,0000.03,0000.10,-000.06,-000.01,0000.04,0000.09,20.1,26.2,07.9,05.5,0665.5,31.3
2021-07-05T13:10:00Z,00000200,00000000,0000.52,0000.32,0000.65,0000.11,0000.13,0000.20,0000.36,0000.19,0000.53,20.1,26.2,07.9,05.5,0665.5,31.2
2021-07-05T13:11:00Z,00000200,00000000,-000.10,0000.56,0000.43,0000.11,0000.07,0000.04,-000.10,0000.10,-000.24,20.1,26.2,07.8,05.4,0665.5,31.3
2021-07-05T13:12:00Z,00000200,00000000,0000.46,0000.38,0000.44,0000.29,0000.22,0000.19,-000.05,0000.40,-000.04,20.1,26.2,07.9,05.5,0665.5,31.3
2021-07-05T13:13:00Z,00000200,00000000,0000.46,0000.34,0000.43,0000.13,0000.31,0000.10,0000.44,0000.13,0000.30,20.2,26.2,07.9,05.5,0665.5,31.2
2021-07-05T13:14:00Z,00000200,00000000,0000.30,0000.44,0000.09,0000.37,0000.18,-000.06,-000.18,-000.24,-000.14,20.2,26.2,07.8,05.4,0665.5,31.2
2021-07-05T13:15:00Z,00000200,00000000,0000.24,0000.34,0000.84,0000.30,0000.33,-000.03,0000.58,0000.20,0000.18,20.2,26.2,07.8,05.4,0665.5,31.3
2021-07-05T13:16:00Z,00000200,00000000,0000.42,0000.45,0000.48,0000.47,-000.19,0000.14,-000.13,0000.12,0000.38,20.2,26.2,07.9,05.5,0665.5,31.2
2021-07-05T13:17:00Z,00000200,00000000,0000.10,0000.25,0000.68,0000.44,0000.22,0000.21,0000.34,0000.56,-000.06,20.2,26.2,07.9,05.5,0665.5,31.2
2021-07-05T13:18:00Z,00000200,00000000,0000.52,0000.51,0000.65,0000.55,0000.14,0000.19,-000.22,-000.47,-000.14,20.2,26.2,07.8,05.4,0665.5,31.3
2021-07-05T13:19:00Z,00000200,00000000,0000.54,0000.37,0000.39,0000.02,0000.24,-000.07,0000.18,0000.35,0000.21,20.3,26.2,07.7,05.4,0665.5,31.2
2021-07-05T13:20:00Z,00000200,00000000,-000.02,0000.38,0000.40,0000.24,0000.13,0000.08,0000.10,0000.04,-000.00,20.3,26.2,07.9,05.5,0665.5,31.2
2021-07-05T13:21:00Z,00000200,00000000,0000.51,0000.34,0000.21,0000.10,-000.34,-000.27,0000.02,0000.02,-000.06,20.3,26.3,07.7,05.4,0665.5,31.2
2021-07-05T13:22:00Z,00000200,00000000,0000.25,0000.75,0000.31,0000.19,0000.19,-000.06,-000.06,-000.05,0000.12,20.3,26.3,07.8,05.4,0665.4,31.2
2021-07-05T13:23:00Z,00000200,00000000,0000.73,0000.24,0000.82,0000.42,0000.41,-000.16,0000.49,0000.17,0000.49,20.3,26.3,07.7,05.4,0665.4,31.2
2021-07-05T13:24:00Z,00000200,00000000,-000.26,0000.13,0000.53,0000.56,0000.17,0000.40,-000.06,-000.05,-000.41,20.3,26.3,07.7,05.4,0665.5,31.2
2021-07-05T13:25:00Z,00000200,00000000,0000.77,0000.54,0000.42,0000.33,-000.05,0000.16,-000.01,-000.10,0000.09,20.3,26.3,07.6,05.3,0665.5,31.2
2021-07-05T13:26:00Z,00000200,00000000,0001.21,0000.28,0000.33,0000.68,0000.15,0000.31,0000.06,0000.17,-000.20,20.4,26.3,07.7,05.4,0665.5,31.2
2021-07-05T13:27:00Z,00000200,00000000,0001.22,0000.30,0000.76,0000.08,0000.26,0000.25,-000.04,-000.03,0000.57,20.4,26.3,07.8,05.4,0665.5,31.2
2021-07-05T13:28:00Z,00000200,00000000,0000.68,0000.29,0000.27,0000.47,-000.18,-000.21,0000.11,0000.26,-000.33,20.4,26.3,07.7,05.4,0665.5,31.2
2021-07-05T13:29:00Z,00000200,00000000,-000.23,0000.27,0000.05,-000.12,-000.17,0000.17,0000.24,0000.05,0000.11,20.4,26.4,07.6,05.3,0665.5,31.2
2021-07-05T13:30:00Z,00000200,00000000,0000.87,0000.22,0000.48,-000.33,-000.08,0000.08,-000.09,-000.04,0000.22,20.4,26.3,07.7,05.4,0665.5,31.2
2021-07-05T13:31:00Z,00000200,00000000,0000.00,-000.04,0000.64,-000.07,0000.11,-000.13,0000.01,0000.03,0000.17,20.4,26.4,07.7,05.4,0665.5,31.3
2021-07-05T13:32:00Z,00000200,00000000,-000.81,0000.02,0000.30,0000.44,0000.22,-000.47,-000.13,0000.30,-000.15,20.4,26.4,07.6,05.3,0665.5,31.2
2021-07-05T13:33:00Z,00000200,00000000,0000.10,0000.40,0000.24,0000.57,0000.02,-000.12,0000.41,-000.01,0000.18,20.4,26.4,07.6,05.3,0665.5,31.3
2021-07-05T13:34:00Z,00000200,00000000,0000.41,0000.18,0000.44,0000.09,0000.10,0000.08,0000.04,0000.25,0000.14,20.5,26.4,07.7,05.4,0665.5,31.2
2021-07-05T13:35:00Z,00000200,00000000,0000.09,0000.43,0000.60,0000.47,0000.06,0000.40,-000.16,-000.20,-000.05,20.5,26.4,07.6,05.3,0665.5,31.2
2021-07-05T13:36:00Z,00000200,00000000,0000.89,0000.47,0000.55,0000.40,-000.16,0000.24,0000.09,-000.06,-000.17,20.5,26.4,07.6,05.3,0665.5,31.3
2021-07-05T13:37:00Z,00000200,00000000,0000.02,0000.05,0000.35,-000.03,0000.33,-000.09,-000.23,0000.09,-000.34,20.5,26.4,07.6,05.3,0665.5,31.2
2021-07-05T13:38:00Z,00000200,00000000,0000.43,0000.04,0000.08,-000.35,-000.06,-000.01,0000.18,-000.13,0000.31,20.5,26.4,07.5,05.3,0665.5,31.2
2021-07-05T13:39:00Z,00000200,00000000,-000.17,0000.28,-000.09,-000.00,-000.06,-000.21,0000.28,0000.26,0000.10,20.5,26.4,07.5,05.2,0665.5,31.2
2021-07-05T13:40:00Z,00000200,00000000,0000.39,0000.44,0000.44,0000.08,0000.19,0000.21,0000.03,-000.04,-000.09,20.5,26.5,07.6,05.3,0665.5,31.3
2021-07-05T13:41:00Z,00000200,00000000,-000.19,0000.10,0000.17,0000.03,0000.08,-000.22,-000.22,0000.18,0000.15,20.6,26.5,07.5,05.2,0665.5,31.2
2021-07-05T13:42:00Z,00000200,00000000,-000.17,0000.27,0000.47,0000.38,-000.06,0000.21,0000.09,0000.08,0000.01,20.6,26.5,07.5,05.2,0665.5,31.2
2021-07-05T13:43:00Z,00000200,00000000,0000.09,0000.44,0000.15,0000.11,-000.08,-000.48,0000.29,0000.15,-000.04,20.6,26.5,07.6,05.3,0665.5,31.3
2021-07-05T13:44:00Z,00000200,00000000,-000.45,0000.13,0000.18,0000.18,0000.04,-000.19,-000.24,-000.39,0000.07,20.6,26.5,07.4,05.2,0665.5,31.2
2021-07-05T13:45:00Z,00000200,00000000,0000.36,0000.06,0000.36,0000.01,-000.06,-000.29,-000.03,0000.22,0000.02,20.6,26.5,07.4,05.2,0665.5,31.2
2021-07-05T13:46:00Z,00000200,00000000,-000.20,0000.24,0000.15,0000.09,0000.09,0000.04,-000.15,-000.10,-000.06,20.6,26.5,07.4,05.2,0665.5,31.3
2021-07-05T13:47:00Z,00000200,00000000,-000.36,0000.33,0000.43,0000.40,0000.07,0000.30,0000.23,0000.28,0000.16,20.7,26.5,07.5,05.3,0665.5,31.2
2021-07-05T13:48:00Z,00000200,00000000,0000.37,0000.21,0000.11,0000.34,-000.01,-000.02,0000.12,0000.01,0000.27,20.7,26.5,07.4,05.2,0665.5,31.2
2021-07-05T13:49:00Z,00000200,00000000,-000.41,-000.11,0000.23,-000.15,0000.07,0000.03,-000.12,-000.47,-000.45,20.7,26.5,07.4,05.2,0665.5,31.2
2021-07-05T13:50:00Z,00000200,00000000,0000.53,0000.17,0000.51,-000.30,0000.37,0000.08,0000.04,-000.03,-000.05,20.7,26.5,07.3,05.1,0665.5,31.2
2021-07-05T13:51:00Z,00000200,00000000,0000.11,0000.23,0000.38,0000.62,-000.16,0000.05,-000.23,0000.01,0000.39,20.7,26.6,07.3,05.1,0665.6,31.3
2021-07-05T13:52:00Z,00000200,00000000,-000.29,-000.01,0000.31,0000.53,-000.04,0000.14,0000.35,0000.34,-000.31,20.7,26.6,07.2,05.0,0665.5,31.3
2021-07-05T13:53:00Z,00000200,00000000,-000.20,0000.37,0000.24,-000.02,0000.02,-000.03,-000.31,-000.26,0000.20,20.7,26.6,07.2,05.0,0665.6,31.3
2021-07-05T13:54:00Z,00000200,00000000,0000.06,0000.09,0000.22,-000.10,0000.01,-000.09,0000.19,-000.05,-000.03,20.7,26.6,07.2,05.0,0665.6,31.2
2021-07-05T13:55:00Z,00000200,00000000,-000.59,-000.04,0000.22,0000.30,-000.22,-000.12,-000.13,-000.22,-000.03,20.7,26.6,07.1,05.0,0665.6,31.3
2021-07-05T13:56:00Z,00000200,00000000,-000.57,0000.01,0000.34,-000.17,0000.07,0000.12,-000.33,0000.53,-000.10,20.7,26.6,07.1,05.0,0665.6,31.2
2021-07-05T13:57:00Z,00000200,40000000,,,,,,,0000.29,0000.11,0000.32,20.8,26.7,07.7,05.4,0665.6,31.3
2021-07-05T13:58:00Z,00000200,60000000,,,,,,,-000.04,-000.22,-000.15,20.6,26.7,07.0,04.9,0664.6,31.3
2021-07-05T13:59:00Z,00000200,20000000,,,,,,,-000.03,-000.17,-000.29,20.6,26.8,07.0,04.8,0664.6,31.3
